• Currently

    Reported at Minneapolis, Minneapolis-St. Paul International Airport, MN
    3:53 AM CST SUN MAR 26 2017
  • 37°F3°C
  • Drizzle
    Drizzle
  • Feels Like:33°F0°CDew Point:34°F1°CHumidity:87% Winds:E 7 mph 11 kph
    Pressure:29.94 in1014 hPaVisibility:7.00 miles11263.00 meters
Time Weather Temp Dew Point
Humidity Winds Visibility Pressure Precipitation
1 hr 24 hr
Monday, March 20
23:53 23:53 Partly Cloudy Partly Cloudy 42°F6°C 35°F2°C 76% SE 5 mphSE 7 kph 10.0 miles16.1 km 29.97 in1015 hPa 0.00 in0.00 mm --
22:53 22:53 Partly Cloudy Partly Cloudy 47°F8°C 36°F2°C 66% CalmCalm 10.0 miles16.1 km 29.97 in1015 hPa 0.00 in0.00 mm --
21:53 21:53 Mostly Clear Mostly Clear 47°F8°C 36°F2°C 66% ENE 3 mphENE 6 kph 10.0 miles16.1 km 29.97 in1015 hPa 0.00 in0.00 mm --
20:53 20:53 Partly Cloudy Partly Cloudy 49°F9°C 37°F3°C 64% N 5 mphN 7 kph 10.0 miles16.1 km 29.97 in1015 hPa 0.00 in0.00 mm --
19:53 19:53 Mostly Clear Mostly Clear 49°F9°C 37°F3°C 64% SE 7 mphSE 11 kph 10.0 miles16.1 km 29.94 in1014 hPa 0.00 in0.00 mm --
18:53 18:53 Mostly Sunny Mostly Sunny 52°F11°C 37°F3°C 57% SE 8 mphSE 13 kph 10.0 miles16.1 km 29.94 in1014 hPa 0.00 in0.00 mm --
17:53 17:53 Mostly Cloudy Mostly Cloudy 55°F13°C 36°F2°C 49% S 12 mphS 19 kph 10.0 miles16.1 km 29.94 in1014 hPa 0.00 in0.00 mm --
16:53 16:53 Mostly Cloudy Mostly Cloudy 53°F12°C 35°F2°C 51% S 12 mphS 19 kph 10.0 miles16.1 km 29.94 in1014 hPa 0.00 in0.00 mm --
15:53 15:53 Cloudy Cloudy 50°F10°C 34°F1°C 54% S 8 mphS 13 kph 10.0 miles16.1 km 29.97 in1015 hPa 0.00 in0.00 mm --
14:53 14:53 Cloudy Cloudy 48°F9°C 32°F0°C 54% S 12 mphS 19 kph 10.0 miles16.1 km 29.97 in1015 hPa 0.00 in0.00 mm --
13:53 13:53 Cloudy Cloudy 47°F8°C 32°F0°C 56% S 16 mphS 26 kph 10.0 miles16.1 km 29.97 in1015 hPa 0.00 in0.00 mm --
12:53 12:53 Cloudy Cloudy 45°F7°C 31°F-1°C 58% SSE 14 mphSSE 22 kph 10.0 miles16.1 km 30.03 in1017 hPa 0.00 in0.00 mm --
11:53 11:53 Mostly Cloudy Mostly Cloudy 44°F7°C 30°F-1°C 58% SSE 17 mphSSE 28 kph 10.0 miles16.1 km 30.06 in1018 hPa 0.00 in0.00 mm --
10:53 10:53 Mostly Cloudy Mostly Cloudy 41°F5°C 28°F-2°C 60% S 18 mphS 30 kph 10.0 miles16.1 km 30.09 in1019 hPa 0.00 in0.00 mm --
09:53 09:53 Mostly Cloudy Mostly Cloudy 38°F3°C 28°F-2°C 68% SSE 16 mphSSE 26 kph 10.0 miles16.1 km 30.12 in1020 hPa 0.00 in0.00 mm --
08:53 08:53 Mostly Cloudy Mostly Cloudy 33°F1°C 26°F-3°C 75% SSE 13 mphSSE 20 kph 10.0 miles16.1 km 30.15 in1021 hPa 0.00 in0.00 mm --
07:53 07:53 Mostly Cloudy Mostly Cloudy 31°F-1°C 25°F-4°C 79% SE 13 mphSE 20 kph 10.0 miles16.1 km 30.18 in1022 hPa 0.00 in0.00 mm --
06:53 06:53 Partly Cloudy Partly Cloudy 32°F0°C 25°F-4°C 75% SE 14 mphSE 22 kph 10.0 miles16.1 km 30.18 in1022 hPa 0.00 in0.00 mm --
05:53 05:53 Clear Clear 31°F-1°C 25°F-4°C 79% SE 12 mphSE 19 kph 10.0 miles16.1 km 30.21 in1023 hPa 0.00 in0.00 mm --
04:53 04:53 Clear Clear 30°F-1°C 24°F-4°C 79% SE 12 mphSE 19 kph 10.0 miles16.1 km 30.21 in1023 hPa 0.00 in0.00 mm --
03:53 03:53 Clear Clear 30°F-1°C 24°F-4°C 79% SE 8 mphSE 13 kph 10.0 miles16.1 km 30.24 in1024 hPa 0.00 in0.00 mm --
02:53 02:53 Clear Clear 30°F-1°C 23°F-5°C 75% SE 6 mphSE 9 kph 10.0 miles16.1 km 30.27 in1025 hPa 0.00 in0.00 mm --
01:53 01:53 Clear Clear 30°F-1°C 23°F-5°C 75% SE 8 mphSE 13 kph 10.0 miles16.1 km 30.27 in1025 hPa 0.00 in0.00 mm --
00:53 00:53 Clear Clear 31°F-1°C 23°F-5°C 72% SE 7 mphSE 11 kph 10.0 miles16.1 km 30.3 in1026 hPa 0.00 in0.00 mm --